Погода в Пату-Бранку

Бразилия     26°13′37″S   52°40′45″W
В апреле 2022 года жителям России запретили посещать сайт meteo.paraplan.net по решению Генеральной прокуратуры. Аудитория сайта уменьшилась в 10 раз. Владельцы сайта не видят смысла в поддержке погодного сервера в таких условиях. Сайт будет закрыт в октябре.
темп.,
°C
ветер,
м/с
пор.,
м/с
влажн.,
%
обл.,
%
осадки,
мм/ч
давл.,
гПа
погр.,
м
4 октября, вт
вт400:00+12ююв39880 0.0 1014182
03:00+11юв22870 0.0 101242
06:00+11юв11920 0.0 101310
09:00+18ссв23780 0.0 1014374
12:00+22ссз34600 0.0 10131486
15:00+23сз23550 0.0 10111551
18:00+19с11770 0.0 101111
21:00+15ююв22870 0.0 101215
5 октября, ср
ср500:00+13в11900 0.0 101310
03:00+12всв11870 0.0 101313
06:00+12в22950 0.0 101327
09:00+19ссв367416 0.0 1013358
12:00+24с3563100 0.0 1013804
15:00+23ссз4674100 0.1 10111047
18:00+20св389189 0.3 1009446
21:00+17св31196100 0.3 1009299
6 октября, чт
чт600:00+17с2993100 0.1 1011293
03:00+16в1199100 6.8 100851
06:00+17св41399100 16.3 1008859
09:00+17ссз51299100 40.6 1008995
12:00+18сз4990100 5.4 1008533
15:00+21сз488734 5.8 1006807
18:00+18сз3896100 2.0 1006415
21:00+17з41097100 4.2 1009687
7 октября, пт
пт700:00+14зюз4891100 0.1 1010641
03:00+13зюз3892100 0.1 1011610
06:00+11юз149532 0.1 1013225
09:00+12ююз3787100 0.1 1016766
12:00+18ююз24593 0.0 10151516
15:00+19юз34550 0.0 10131635
18:00+15ю22800 0.0 101327
21:00+11юв11850 0.0 101513
8 октября, сб
сб800:00+10вюв11850 0.0 101417
03:00+9в11840 0.0 101210
06:00+8в11830 0.0 101211
09:00+16ссв24650 0.0 1012304
12:00+20с47540 0.0 1010720
15:00+22с47550 0.0 1008950
18:00+18ссв248017 0.0 100880
21:00+14ссв12880 0.0 101036